Location: Boss Branch
(32.3799°N, 97.2508°W)
Time: 04:56:33
(UTC+00:00)

Tiangong - Visible Passes

Search period start: 07 October 2024 00:00
Search period end: 17 October 2024 00:00
Orbit: 374 x 378 km, 41.5° (Epoch: 06 October)

Date Brightness Start Highest point End Pass type
(mag) Time Alt. Az. Time Alt. Az. Time Alt. Az.
13 Oct 1.1 11:49:27 10° SSE 11:50:03 10° SE 11:50:40 10° SE visible
15 Oct 0.4 11:18:06 10° S 11:20:20 19° SE 11:22:36 10° E visible
16 Oct -2.1 11:50:27 10° SW 11:53:32 76° SSE 11:56:37 10° ENE visible
